DLH3KV EDDC-EDDF

Flight info

Callsign DLH3KV
Flight time 0h 47m
Altitude 34000
Route ABKIS4W ABKIS Z715 NURGO T170 GAPLA/N0411F240 T178 KERAX KERAX5A
Aircraft A320/M-SDE3FGHIRWY/LB1

Departure

Time 2026-05-05 11:20
Airport Dresden Airport (EDDC)

Arrival

Time 2026-05-05 12:08
Airport Frankfurt Main Airport (EDDF)
Time Latitude Longitude Altitude Speed Heading
2026-05-05 10:46 51.12566 13.76670 752 ft 0 kts 221°
2026-05-05 10:48 51.12567 13.76670 752 ft 0 kts 221°
2026-05-05 11:07 51.12580 13.76690 754 ft 4 kts 226°
2026-05-05 11:07 51.12598 13.76721 752 ft 4 kts 224°
2026-05-05 11:07 51.12618 13.76742 750 ft 2 kts 193°
2026-05-05 11:07 51.12635 13.76739 754 ft 4 kts 141°
2026-05-05 11:08 51.12649 13.76727 752 ft 4 kts 106°
2026-05-05 11:08 51.12660 13.76698 750 ft 4 kts 131°
2026-05-05 11:08 51.12667 13.76685 749 ft 0 kts 131°
2026-05-05 11:13 51.12664 13.76684 750 ft 0 kts 160°
2026-05-05 11:13 51.12662 13.76673 750 ft 1 kts 254°
2026-05-05 11:13 51.12665 13.76669 750 ft 0 kts 301°
2026-05-05 11:14 51.12674 13.76660 750 ft 6 kts 321°
2026-05-05 11:14 51.12710 13.76606 751 ft 7 kts 311°
2026-05-05 11:14 51.12742 13.76547 752 ft 7 kts 311°
2026-05-05 11:14 51.12775 13.76488 751 ft 7 kts 311°
2026-05-05 11:15 51.12795 13.76427 750 ft 6 kts 275°
2026-05-05 11:15 51.12776 13.76370 749 ft 6 kts 220°
2026-05-05 11:15 51.12747 13.76331 748 ft 5 kts 220°
2026-05-05 11:15 51.12721 13.76296 751 ft 4 kts 220°
2026-05-05 11:16 51.12699 13.76266 749 ft 4 kts 220°
2026-05-05 11:16 51.12673 13.76230 751 ft 7 kts 221°
2026-05-05 11:16 51.12627 13.76167 755 ft 9 kts 221°
2026-05-05 11:16 51.12586 13.76110 755 ft 6 kts 221°
2026-05-05 11:17 51.12562 13.76077 754 ft 3 kts 221°
2026-05-05 11:17 51.12531 13.76034 757 ft 10 kts 221°
2026-05-05 11:17 51.12485 13.75971 762 ft 6 kts 220°
2026-05-05 11:17 51.12457 13.75933 763 ft 6 kts 220°
2026-05-05 11:18 51.12413 13.75873 764 ft 8 kts 221°
2026-05-05 11:18 51.12376 13.75817 765 ft 6 kts 233°
2026-05-05 11:18 51.12375 13.75748 765 ft 8 kts 286°
2026-05-05 11:18 51.12402 13.75638 765 ft 12 kts 294°
2026-05-05 11:19 51.12437 13.75551 767 ft 7 kts 308°
2026-05-05 11:19 51.12468 13.75514 769 ft 7 kts 341°
2026-05-05 11:19 51.12521 13.75543 768 ft 11 kts 40°
2026-05-05 11:19 51.12697 13.75784 757 ft 69 kts 40°
2026-05-05 11:20 51.13238 13.76527 745 ft 133 kts 40°
2026-05-05 11:20 51.14055 13.77647 905 ft 167 kts 40°
2026-05-05 11:20 51.14899 13.78833 1590 ft 168 kts 41°
2026-05-05 11:20 51.15760 13.80094 2314 ft 173 kts 41°
2026-05-05 11:21 51.16701 13.81447 2688 ft 193 kts 41°
2026-05-05 11:21 51.17786 13.82937 3041 ft 219 kts 40°
2026-05-05 11:21 51.19009 13.84602 3566 ft 243 kts 41°
2026-05-05 11:21 51.20054 13.86814 4164 ft 259 kts 71°
2026-05-05 11:22 51.20261 13.89701 4962 ft 268 kts 93°
2026-05-05 11:22 51.19890 13.92630 5774 ft 274 kts 118°
2026-05-05 11:22 51.18672 13.94923 6509 ft 279 kts 142°
2026-05-05 11:22 51.17193 13.96954 6793 ft 280 kts 139°
2026-05-05 11:23 51.15770 13.99150 7560 ft 283 kts 137°
2026-05-05 11:23 51.14390 14.01402 8519 ft 284 kts 136°
2026-05-05 11:23 51.13033 14.03661 9432 ft 287 kts 136°
2026-05-05 11:23 51.11643 14.05984 10151 ft 296 kts 137°
2026-05-05 11:24 51.10157 14.08447 10451 ft 319 kts 137°
2026-05-05 11:24 51.08360 14.10568 11020 ft 323 kts 158°
2026-05-05 11:24 51.06188 14.11456 11742 ft 323 kts 180°
2026-05-05 11:24 51.04002 14.10971 12493 ft 323 kts 201°
2026-05-05 11:25 51.02061 14.09178 13267 ft 325 kts 222°
2026-05-05 11:25 51.00415 14.06686 14002 ft 328 kts 224°
2026-05-05 11:25 50.98771 14.04153 14694 ft 331 kts 224°
2026-05-05 11:25 50.97107 14.01592 15384 ft 334 kts 224°
2026-05-05 11:26 50.95449 13.99049 16049 ft 337 kts 224°
2026-05-05 11:26 50.93746 13.96446 16725 ft 340 kts 224°
2026-05-05 11:26 50.92027 13.93825 17387 ft 344 kts 224°
2026-05-05 11:26 50.90314 13.91220 18057 ft 346 kts 224°
2026-05-05 11:27 50.88564 13.88566 18626 ft 350 kts 224°
2026-05-05 11:27 50.86795 13.85889 19192 ft 353 kts 224°
2026-05-05 11:27 50.85012 13.83190 19765 ft 356 kts 224°
2026-05-05 11:27 50.83220 13.80470 20330 ft 359 kts 224°
2026-05-05 11:28 50.81411 13.77725 20900 ft 362 kts 225°
2026-05-05 11:28 50.79789 13.74718 21436 ft 365 kts 235°
2026-05-05 11:28 50.78542 13.71204 21983 ft 369 kts 246°
2026-05-05 11:28 50.77630 13.67388 22529 ft 373 kts 249°
2026-05-05 11:29 50.76729 13.63514 23063 ft 377 kts 248°
2026-05-05 11:29 50.75814 13.59608 23558 ft 380 kts 248°
2026-05-05 11:29 50.74888 13.55675 24022 ft 383 kts 248°
2026-05-05 11:29 50.73954 13.51717 24483 ft 385 kts 248°
2026-05-05 11:30 50.73015 13.47746 24941 ft 387 kts 248°
2026-05-05 11:30 50.72069 13.43757 25393 ft 388 kts 248°
2026-05-05 11:30 50.71127 13.39803 25830 ft 390 kts 248°
2026-05-05 11:30 50.70169 13.35777 26267 ft 392 kts 248°
2026-05-05 11:31 50.69207 13.31737 26694 ft 394 kts 248°
2026-05-05 11:31 50.68565 13.29043 26971 ft 395 kts 248°
2026-05-05 11:31 50.67594 13.24972 27382 ft 397 kts 248°
2026-05-05 11:31 50.66614 13.20878 27786 ft 399 kts 248°
2026-05-05 11:32 50.65628 13.16773 28179 ft 401 kts 248°
2026-05-05 11:32 50.64638 13.12662 28628 ft 401 kts 248°
2026-05-05 11:32 50.63658 13.08598 29049 ft 402 kts 248°
2026-05-05 11:32 50.62574 13.04507 29435 ft 403 kts 243°
2026-05-05 11:33 50.61292 13.00568 29800 ft 405 kts 242°
2026-05-05 11:33 50.59997 12.96612 30047 ft 408 kts 242°
2026-05-05 11:33 50.58703 12.92669 30287 ft 411 kts 242°
2026-05-05 11:33 50.57387 12.88662 30564 ft 413 kts 242°
2026-05-05 11:34 50.56059 12.84624 30852 ft 414 kts 242°
2026-05-05 11:34 50.54727 12.80585 31134 ft 415 kts 242°
2026-05-05 11:34 50.53389 12.76541 31440 ft 416 kts 242°
2026-05-05 11:34 50.52072 12.72564 31833 ft 414 kts 242°
2026-05-05 11:35 50.50745 12.68551 32229 ft 412 kts 242°
2026-05-05 11:35 50.49421 12.64559 32624 ft 410 kts 242°
2026-05-05 11:35 50.48100 12.60589 33022 ft 409 kts 242°
2026-05-05 11:35 50.46787 12.56651 33463 ft 406 kts 242°
2026-05-05 11:36 50.45478 12.52723 33794 ft 404 kts 242°
2026-05-05 11:36 50.42933 12.45089 33849 ft 389 kts 242°
2026-05-05 11:37 50.40426 12.37607 33847 ft 385 kts 242°
2026-05-05 11:37 50.37943 12.30226 33846 ft 385 kts 242°
2026-05-05 11:38 50.35436 12.22794 33845 ft 385 kts 241°
2026-05-05 11:38 50.32613 12.15678 33858 ft 385 kts 235°
2026-05-05 11:39 50.29627 12.08788 33862 ft 385 kts 240°
2026-05-05 11:39 50.28513 12.04981 33856 ft 385 kts 251°
2026-05-05 11:39 50.27942 12.00880 33868 ft 387 kts 262°
2026-05-05 11:39 50.27947 11.96642 33863 ft 391 kts 274°
2026-05-05 11:40 50.28548 11.92475 33858 ft 396 kts 285°
2026-05-05 11:40 50.30412 11.84403 33853 ft 397 kts 285°
2026-05-05 11:41 50.32268 11.76259 33850 ft 397 kts 285°
2026-05-05 11:41 50.34119 11.68095 33849 ft 397 kts 285°
2026-05-05 11:42 50.35967 11.59915 33864 ft 398 kts 285°
2026-05-05 11:42 50.37804 11.51783 33865 ft 398 kts 285°
2026-05-05 11:43 50.39645 11.43593 33862 ft 397 kts 285°
2026-05-05 11:43 50.41461 11.35465 33865 ft 397 kts 285°
2026-05-05 11:44 50.43240 11.27472 33869 ft 397 kts 285°
2026-05-05 11:44 50.45043 11.19332 33866 ft 397 kts 285°
2026-05-05 11:45 50.46799 11.11091 33869 ft 398 kts 277°
2026-05-05 11:45 50.47009 11.06782 33866 ft 396 kts 261°
2026-05-05 11:45 50.46547 11.02540 33209 ft 394 kts 255°
2026-05-05 11:45 50.45938 10.98350 32020 ft 393 kts 254°
2026-05-05 11:46 50.45289 10.94207 30956 ft 390 kts 253°
2026-05-05 11:46 50.44625 10.90092 29964 ft 387 kts 253°
2026-05-05 11:46 50.43965 10.86010 28869 ft 384 kts 253°
2026-05-05 11:46 50.43325 10.82014 27854 ft 380 kts 253°
2026-05-05 11:47 50.42692 10.78012 26901 ft 376 kts 254°
2026-05-05 11:47 50.42070 10.74043 26137 ft 368 kts 254°
2026-05-05 11:47 50.41479 10.70236 25729 ft 351 kts 254°
2026-05-05 11:47 50.40914 10.66587 25325 ft 337 kts 253°
2026-05-05 11:48 50.39847 10.59742 24520 ft 316 kts 253°
2026-05-05 11:48 50.39318 10.56404 24116 ft 315 kts 253°
2026-05-05 11:48 50.38787 10.53070 23708 ft 314 kts 253°
2026-05-05 11:49 50.38258 10.49751 23285 ft 313 kts 253°
2026-05-05 11:49 50.37728 10.46443 22851 ft 311 kts 253°
2026-05-05 11:49 50.37202 10.43165 22460 ft 309 kts 253°
2026-05-05 11:49 50.36679 10.39891 22072 ft 307 kts 253°
2026-05-05 11:50 50.36162 10.36655 21691 ft 306 kts 253°
2026-05-05 11:50 50.35652 10.33473 21314 ft 304 kts 253°
2026-05-05 11:50 50.35135 10.30259 20945 ft 303 kts 253°
2026-05-05 11:50 50.34624 10.27069 20562 ft 301 kts 253°
2026-05-05 11:51 50.34116 10.23890 20187 ft 300 kts 253°
2026-05-05 11:51 50.33609 10.20725 19810 ft 299 kts 253°
2026-05-05 11:51 50.33103 10.17577 19449 ft 299 kts 252°
2026-05-05 11:51 50.32591 10.14416 19070 ft 298 kts 252°
2026-05-05 11:52 50.32078 10.11259 18711 ft 298 kts 252°
2026-05-05 11:52 50.31567 10.08119 18343 ft 298 kts 252°
2026-05-05 11:52 50.31051 10.04964 17954 ft 298 kts 252°
2026-05-05 11:52 50.30542 10.01857 17569 ft 298 kts 252°
2026-05-05 11:53 50.30027 9.98722 17209 ft 296 kts 252°
2026-05-05 11:53 50.29516 9.95601 16857 ft 295 kts 253°
2026-05-05 11:53 50.29006 9.92491 16501 ft 294 kts 253°
2026-05-05 11:53 50.28494 9.89389 16150 ft 294 kts 253°
2026-05-05 11:54 50.27990 9.86335 15807 ft 293 kts 253°
2026-05-05 11:54 50.27480 9.83244 15464 ft 293 kts 253°
2026-05-05 11:54 50.26971 9.80152 15118 ft 293 kts 253°
2026-05-05 11:54 50.26461 9.77068 14783 ft 293 kts 253°
2026-05-05 11:55 50.25948 9.73977 14439 ft 293 kts 253°
2026-05-05 11:55 50.25442 9.70933 14095 ft 293 kts 253°
2026-05-05 11:55 50.24927 9.67833 13748 ft 294 kts 253°
2026-05-05 11:55 50.24410 9.64728 13363 ft 294 kts 253°
2026-05-05 11:56 50.23948 9.61966 13045 ft 292 kts 253°
2026-05-05 11:56 50.23434 9.58898 12684 ft 291 kts 253°
2026-05-05 11:56 50.22920 9.55838 12330 ft 290 kts 253°
2026-05-05 11:56 50.22415 9.52828 11976 ft 289 kts 253°
2026-05-05 11:57 50.21906 9.49802 11617 ft 287 kts 253°
2026-05-05 11:57 50.21399 9.46786 11261 ft 286 kts 253°
2026-05-05 11:57 50.20896 9.43795 10899 ft 286 kts 253°
2026-05-05 11:57 50.20401 9.40844 10530 ft 276 kts 253°
2026-05-05 11:58 50.19926 9.38024 10283 ft 260 kts 253°
2026-05-05 11:58 50.19469 9.35333 9887 ft 253 kts 253°
2026-05-05 11:58 50.19020 9.32693 9373 ft 250 kts 253°
2026-05-05 11:58 50.18578 9.30114 8821 ft 248 kts 253°
2026-05-05 11:59 50.18133 9.27527 8278 ft 246 kts 253°
2026-05-05 11:59 50.17691 9.24953 7724 ft 244 kts 253°
2026-05-05 11:59 50.17257 9.22406 7163 ft 242 kts 253°
2026-05-05 11:59 50.16829 9.19885 6642 ft 239 kts 253°
2026-05-05 12:00 50.16405 9.17389 6119 ft 237 kts 253°
2026-05-05 12:00 50.15980 9.14901 5614 ft 236 kts 253°
2026-05-05 12:00 50.15554 9.12423 5267 ft 237 kts 253°
2026-05-05 12:00 50.15127 9.09949 4962 ft 235 kts 253°
2026-05-05 12:01 50.14708 9.07533 4644 ft 234 kts 253°
2026-05-05 12:01 50.14283 9.05081 4314 ft 232 kts 254°
2026-05-05 12:01 50.13859 9.02648 4044 ft 232 kts 253°
2026-05-05 12:01 50.13526 9.00185 3996 ft 232 kts 262°
2026-05-05 12:02 50.13194 8.97743 4007 ft 232 kts 252°
2026-05-05 12:02 50.12677 8.95351 4007 ft 233 kts 249°
2026-05-05 12:02 50.12118 8.92983 4013 ft 232 kts 249°
2026-05-05 12:02 50.11570 8.90658 4004 ft 222 kts 249°
2026-05-05 12:03 50.11058 8.88480 4003 ft 206 kts 249°
2026-05-05 12:03 50.10583 8.86458 4023 ft 191 kts 249°
2026-05-05 12:03 50.10130 8.84532 3803 ft 187 kts 249°
2026-05-05 12:03 50.09695 8.82685 3554 ft 181 kts 249°
2026-05-05 12:04 50.09263 8.80852 3335 ft 180 kts 249°
2026-05-05 12:04 50.08832 8.79028 3103 ft 178 kts 249°
2026-05-05 12:04 50.08404 8.77213 2858 ft 178 kts 249°
2026-05-05 12:04 50.08088 8.75365 2622 ft 176 kts 259°
2026-05-05 12:05 50.07874 8.73540 2437 ft 163 kts 258°
2026-05-05 12:05 50.07630 8.71898 2152 ft 153 kts 254°
2026-05-05 12:05 50.07309 8.70370 1870 ft 145 kts 250°
2026-05-05 12:05 50.06957 8.68918 1624 ft 142 kts 248°
2026-05-05 12:06 50.06609 8.67493 1422 ft 140 kts 249°
2026-05-05 12:06 50.06271 8.66070 1267 ft 140 kts 249°
2026-05-05 12:06 50.05927 8.64658 1119 ft 139 kts 248°
2026-05-05 12:06 50.05609 8.63374 1018 ft 138 kts 249°
2026-05-05 12:07 50.05287 8.62011 864 ft 138 kts 250°
2026-05-05 12:07 50.04976 8.60607 690 ft 136 kts 249°
2026-05-05 12:07 50.04653 8.59238 514 ft 134 kts 247°
2026-05-05 12:07 50.04310 8.57899 372 ft 125 kts 252°
2026-05-05 12:08 50.04065 8.56841 362 ft 80 kts 250°
2026-05-05 12:08 50.03991 8.56389 353 ft 26 kts 276°
2026-05-05 12:08 50.04016 8.56151 351 ft 15 kts 281°
2026-05-05 12:08 50.04019 8.56126 357 ft 0 kts 281°
2026-05-05 12:09 50.04022 8.56125 357 ft 0 kts 306°
2026-05-05 12:09 50.04027 8.56120 356 ft 3 kts 328°
2026-05-05 12:09 50.04055 8.56122 354 ft 3 kts 14°
2026-05-05 12:09 50.04080 8.56137 351 ft 6 kts 26°
2026-05-05 12:10 50.04108 8.56197 360 ft 7 kts 69°
2026-05-05 12:10 50.04132 8.56274 355 ft 8 kts 45°
2026-05-05 12:10 50.04176 8.56278 354 ft 8 kts 343°
2026-05-05 12:10 50.04229 8.56247 360 ft 8 kts 340°
2026-05-05 12:11 50.04280 8.56210 356 ft 7 kts 309°
2026-05-05 12:11 50.04289 8.56149 355 ft 5 kts 260°
2026-05-05 12:11 50.04303 8.56086 359 ft 9 kts 315°
2026-05-05 12:11 50.04360 8.56045 361 ft 8 kts 339°
2026-05-05 12:12 50.04408 8.56026 358 ft 6 kts
2026-05-05 12:12 50.04441 8.56062 360 ft 5 kts 58°
2026-05-05 12:12 50.04451 8.56108 358 ft 4 kts 72°
2026-05-05 12:12 50.04451 8.56113 357 ft 1 kts 84°
2026-05-05 12:13 50.04440 8.56130 362 ft 2 kts 134°
2026-05-05 12:13 50.04428 8.56140 365 ft 2 kts 153°
2026-05-05 12:13 50.04418 8.56148 358 ft 2 kts 154°
2026-05-05 12:13 50.04398 8.56162 363 ft 2 kts 155°
2026-05-05 12:14 50.04390 8.56168 360 ft 0 kts 155°